Dew Point Data


Current

Temp 76.0 F. Dew Point 73.9 F.


Dew Point Comfort Scale

dewpoints

Date, Time Temperature Dew Point
Fri Jun 12 01:08:05 2020 63.0 F. 57.0 F.
Fri Jun 12 02:08:04 2020 62.0 F. 59.0 F.
Fri Jun 12 03:08:05 2020 61.0 F. 57.9 F.
Fri Jun 12 04:08:05 2020 61.0 F. 57.0 F.
Fri Jun 12 05:08:05 2020 59.0 F. 55.9 F.
Fri Jun 12 06:08:05 2020 58.0 F. 55.9 F.
Fri Jun 12 07:08:05 2020 62.0 F. 59.0 F.
Fri Jun 12 08:08:05 2020 67.0 F. 61.0 F.
Fri Jun 12 09:08:05 2020 78.0 F. 59.0 F.
Fri Jun 12 10:08:05 2020 83.0 F. 57.9 F.
Fri Jun 12 11:08:05 2020 85.0 F. 54.0 F.
Fri Jun 12 12:08:05 2020 87.0 F. 55.9 F.
Fri Jun 12 13:08:05 2020 87.0 F. 54.0 F.
Fri Jun 12 14:08:05 2020 89.0 F. 55.9 F.
Fri Jun 12 15:08:05 2020 90.0 F. 55.9 F.
Fri Jun 12 16:08:04 2020 90.0 F. 55.9 F.
Fri Jun 12 17:08:05 2020 88.0 F. 57.0 F.
Fri Jun 12 18:08:05 2020 89.0 F. 57.9 F.
Fri Jun 12 19:08:05 2020 87.0 F. 60.1 F.
Fri Jun 12 20:08:05 2020 80.0 F. 63.0 F.
Fri Jun 12 21:08:05 2020 78.0 F. 63.0 F.
Fri Jun 12 22:08:05 2020 73.0 F. 63.0 F.
Fri Jun 12 23:08:05 2020 74.0 F. 64.0 F.
Sat Jun 13 00:08:05 2020 73.0 F. 63.0 F.
Sat Jun 13 01:08:05 2020 71.0 F. 62.1 F.
Sat Jun 13 02:08:05 2020 70.0 F. 63.0 F.
Sat Jun 13 03:08:05 2020 70.0 F. 63.0 F.
Sat Jun 13 04:08:04 2020 67.0 F. 63.0 F.
Sat Jun 13 05:08:05 2020 67.0 F. 63.0 F.
Sat Jun 13 06:08:05 2020 66.0 F. 63.0 F.
Sat Jun 13 07:08:05 2020 70.0 F. 64.0 F.
Sat Jun 13 08:08:04 2020 74.0 F. 64.0 F.
Sat Jun 13 09:08:05 2020 78.0 F. 64.0 F.
Sat Jun 13 10:08:05 2020 82.0 F. 62.1 F.
Sat Jun 13 11:08:05 2020 84.0 F. 64.0 F.
Sat Jun 13 12:08:05 2020 85.0 F. 64.0 F.
Sat Jun 13 13:08:05 2020 87.0 F. 64.0 F.
Sat Jun 13 14:08:05 2020 90.0 F. 52.0 F.
Sat Jun 13 15:08:05 2020 90.0 F. 55.0 F.
Sat Jun 13 16:08:06 2020 90.0 F. 57.9 F.
Sat Jun 13 17:08:05 2020 91.0 F. 55.9 F.
Sat Jun 13 18:08:05 2020 90.0 F. 54.0 F.
Sat Jun 13 19:08:06 2020 88.0 F. 53.1 F.
Sat Jun 13 20:08:05 2020 84.0 F. 55.9 F.
Sat Jun 13 21:08:05 2020 75.0 F. 60.1 F.
Sat Jun 13 22:08:05 2020 73.0 F. 59.0 F.
Sat Jun 13 23:08:05 2020 68.0 F. 60.1 F.
Sun Jun 14 00:08:05 2020 68.0 F. 61.0 F.
Sun Jun 14 01:08:04 2020 65.0 F. 60.1 F.
Sun Jun 14 02:08:05 2020 66.0 F. 61.0 F.
Sun Jun 14 03:08:05 2020 64.0 F. 60.1 F.
Sun Jun 14 04:08:05 2020 63.0 F. 60.1 F.
Sun Jun 14 05:08:05 2020 65.0 F. 60.1 F.
Sun Jun 14 06:08:04 2020 64.0 F. 59.0 F.
Sun Jun 14 07:08:05 2020 66.0 F. 59.0 F.
Sun Jun 14 08:08:05 2020 70.0 F. 59.0 F.
Sun Jun 14 09:08:05 2020 70.0 F. 59.0 F.
Sun Jun 14 10:08:05 2020 72.0 F. 57.0 F.
Sun Jun 14 11:08:05 2020 75.0 F. 57.0 F.
Sun Jun 14 12:08:05 2020 78.0 F. 57.0 F.
Sun Jun 14 13:08:05 2020 79.0 F. 57.9 F.
Sun Jun 14 14:08:05 2020 78.0 F. 57.9 F.
Sun Jun 14 15:08:04 2020 80.0 F. 57.9 F.
Sun Jun 14 16:08:04 2020 79.0 F. 60.1 F.
Sun Jun 14 17:08:05 2020 78.0 F. 60.1 F.
Sun Jun 14 18:08:05 2020 79.0 F. 59.0 F.
Sun Jun 14 19:08:04 2020 78.0 F. 59.0 F.
Sun Jun 14 20:08:05 2020 76.0 F. 60.1 F.
Sun Jun 14 21:08:05 2020 73.0 F. 61.0 F.
Sun Jun 14 22:08:05 2020 71.0 F. 61.0 F.
Sun Jun 14 23:08:04 2020 68.0 F. 60.1 F.
Mon Jun 15 00:08:05 2020 67.0 F. 60.1 F.
Mon Jun 15 01:08:05 2020 67.0 F. 57.9 F.
Mon Jun 15 02:08:04 2020 64.0 F. 57.9 F.
Mon Jun 15 03:08:05 2020 62.0 F. 57.9 F.
Mon Jun 15 04:08:05 2020 60.0 F. 57.0 F.
Mon Jun 15 05:08:05 2020 59.0 F. 57.0 F.
Mon Jun 15 06:08:05 2020 60.0 F. 57.0 F.
Mon Jun 15 07:08:04 2020 63.0 F. 55.9 F.
Mon Jun 15 08:08:05 2020 66.0 F. 55.0 F.
Mon Jun 15 09:08:05 2020 70.0 F. 55.9 F.
Mon Jun 15 10:08:05 2020 74.0 F. 54.0 F.
Mon Jun 15 11:08:05 2020 76.0 F. 48.9 F.
Mon Jun 15 12:08:04 2020 78.0 F. 48.0 F.
Mon Jun 15 13:08:05 2020 79.0 F. 46.9 F.
Mon Jun 15 14:08:05 2020 81.0 F. 46.9 F.
Mon Jun 15 15:08:05 2020 82.0 F. 48.0 F.
Mon Jun 15 16:08:10 2020 82.0 F. 45.0 F.
Mon Jun 15 17:08:04 2020 82.0 F. 44.1 F.
Mon Jun 15 18:08:05 2020 82.0 F. 46.9 F.
Mon Jun 15 19:08:05 2020 80.0 F. 46.0 F.
Mon Jun 15 20:08:06 2020 76.0 F. 48.0 F.
Mon Jun 15 21:08:05 2020 67.0 F. 51.1 F.
Mon Jun 15 22:08:06 2020 65.0 F. 52.0 F.
Mon Jun 15 23:08:05 2020 62.0 F. 53.1 F.
Tue Jun 16 00:08:05 2020 59.0 F. 53.1 F.
Tue Jun 16 01:08:05 2020 58.0 F. 54.0 F.
Tue Jun 16 02:08:04 2020 57.0 F. 54.0 F.
Tue Jun 16 03:08:05 2020 57.0 F. 54.0 F.
Tue Jun 16 04:08:05 2020 57.0 F. 54.0 F.
Tue Jun 16 05:08:05 2020 56.0 F. 54.0 F.
Tue Jun 16 06:08:05 2020 56.0 F. 54.0 F.
Tue Jun 16 07:08:05 2020 60.0 F. 55.9 F.
Tue Jun 16 08:08:05 2020 66.0 F. 55.0 F.
Tue Jun 16 09:08:05 2020 71.0 F. 57.9 F.
Tue Jun 16 10:08:05 2020 71.0 F. 57.9 F.
Tue Jun 16 11:08:05 2020 78.0 F. 57.0 F.
Tue Jun 16 12:08:05 2020 81.0 F. 54.0 F.
Tue Jun 16 13:08:04 2020 81.0 F. 55.0 F.
Tue Jun 16 14:08:04 2020 83.0 F. 57.0 F.
Tue Jun 16 15:08:05 2020 84.0 F. 55.9 F.
Tue Jun 16 16:08:06 2020 82.0 F. 55.0 F.
Tue Jun 16 17:08:04 2020 81.0 F. 55.0 F.
Tue Jun 16 18:08:05 2020 83.0 F. 55.9 F.
Tue Jun 16 19:08:05 2020 81.0 F. 55.9 F.
Tue Jun 16 20:08:05 2020 78.0 F. 57.0 F.
Tue Jun 16 21:08:04 2020 72.0 F. 60.1 F.
Tue Jun 16 22:08:05 2020 69.0 F. 60.1 F.
Tue Jun 16 23:08:05 2020 67.0 F. 60.1 F.
Wed Jun 17 00:08:05 2020 67.0 F. 60.1 F.
Wed Jun 17 01:08:04 2020 66.0 F. 59.0 F.
Wed Jun 17 02:08:04 2020 62.0 F. 59.0 F.
Wed Jun 17 03:08:05 2020 62.0 F. 57.9 F.
Wed Jun 17 04:08:05 2020 61.0 F. 57.9 F.
Wed Jun 17 05:08:05 2020 60.0 F. 57.9 F.
Wed Jun 17 06:08:05 2020 59.0 F. 57.0 F.
Wed Jun 17 07:08:04 2020 63.0 F. 60.1 F.
Wed Jun 17 08:08:04 2020 63.0 F. 60.1 F.
Wed Jun 17 09:08:05 2020 74.0 F. 59.0 F.
Wed Jun 17 10:08:06 2020 78.0 F. 57.0 F.
Wed Jun 17 11:08:04 2020 80.0 F. 57.0 F.
Wed Jun 17 12:08:05 2020 82.0 F. 55.9 F.
Wed Jun 17 13:08:04 2020 82.0 F. 55.0 F.
Wed Jun 17 14:08:04 2020 82.0 F. 55.9 F.
Wed Jun 17 15:08:05 2020 83.0 F. 55.9 F.
Wed Jun 17 16:08:05 2020 85.0 F. 54.0 F.
Wed Jun 17 17:08:05 2020 85.0 F. 55.9 F.
Wed Jun 17 18:08:04 2020 84.0 F. 55.0 F.
Wed Jun 17 19:08:05 2020 83.0 F. 54.0 F.
Wed Jun 17 20:08:05 2020 83.0 F. 54.0 F.
Wed Jun 17 21:08:05 2020 72.0 F. 60.1 F.
Wed Jun 17 22:08:04 2020 71.0 F. 60.1 F.
Wed Jun 17 23:08:04 2020 68.0 F. 60.1 F.
Thu Jun 18 00:08:13 2020 66.0 F. 61.0 F.
Thu Jun 18 01:08:05 2020 65.0 F. 61.0 F.
Thu Jun 18 02:08:05 2020 64.0 F. 60.1 F.
Thu Jun 18 03:08:04 2020 63.0 F. 60.1 F.
Thu Jun 18 04:08:05 2020 62.0 F. 60.1 F.
Thu Jun 18 05:08:05 2020 62.0 F. 60.1 F.
Thu Jun 18 06:08:04 2020 61.0 F. 59.0 F.
Thu Jun 18 07:08:05 2020 64.0 F. 62.1 F.
Thu Jun 18 08:08:05 2020 70.0 F. 63.0 F.
Thu Jun 18 09:08:05 2020 76.0 F. 61.0 F.
Thu Jun 18 10:08:05 2020 80.0 F. 60.1 F.
Thu Jun 18 11:08:04 2020 82.0 F. 57.9 F.
Thu Jun 18 12:08:05 2020 84.0 F. 57.9 F.
Thu Jun 18 13:08:05 2020 85.0 F. 59.0 F.
Thu Jun 18 14:08:05 2020 86.0 F. 57.9 F.
Thu Jun 18 15:08:04 2020 87.0 F. 57.9 F.
Thu Jun 18 16:08:05 2020 87.0 F. 59.0 F.
Thu Jun 18 17:08:04 2020 87.0 F. 57.9 F.
Thu Jun 18 18:08:05 2020 86.0 F. 59.0 F.
Thu Jun 18 19:08:05 2020 85.0 F. 60.1 F.
Thu Jun 18 20:08:05 2020 81.0 F. 61.0 F.
Thu Jun 18 21:08:06 2020 75.0 F. 63.0 F.
Thu Jun 18 22:08:05 2020 73.0 F. 63.0 F.
Thu Jun 18 23:08:05 2020 71.0 F. 63.0 F.
Fri Jun 19 00:08:06 2020 69.0 F. 63.0 F.
Fri Jun 19 01:08:04 2020 67.0 F. 63.0 F.
Fri Jun 19 02:08:05 2020 67.0 F. 63.0 F.
Fri Jun 19 03:08:04 2020 65.0 F. 63.0 F.
Fri Jun 19 04:08:05 2020 65.0 F. 62.1 F.
Fri Jun 19 05:08:05 2020 65.0 F. 62.1 F.
Fri Jun 19 06:08:05 2020 64.0 F. 62.1 F.
Fri Jun 19 07:08:05 2020 64.0 F. 62.1 F.
Fri Jun 19 08:08:05 2020 73.0 F. 64.9 F.
Fri Jun 19 09:08:05 2020 79.0 F. 64.0 F.
Fri Jun 19 10:08:05 2020 83.0 F. 62.1 F.
Fri Jun 19 11:08:04 2020 86.0 F. 63.0 F.
Fri Jun 19 12:08:05 2020 89.0 F. 61.0 F.
Fri Jun 19 13:08:05 2020 89.0 F. 61.0 F.
Fri Jun 19 14:08:05 2020 89.0 F. 61.0 F.
Fri Jun 19 15:08:05 2020 90.0 F. 63.0 F.
Fri Jun 19 16:08:05 2020 90.0 F. 60.1 F.
Fri Jun 19 17:08:04 2020 90.0 F. 57.9 F.
Fri Jun 19 18:08:04 2020 89.0 F. 57.9 F.
Fri Jun 19 19:08:04 2020 87.0 F. 59.0 F.
Fri Jun 19 20:08:05 2020 82.0 F. 62.1 F.
Fri Jun 19 21:08:05 2020 76.0 F. 64.0 F.
Fri Jun 19 22:08:05 2020 72.0 F. 64.0 F.
Fri Jun 19 23:08:05 2020 72.0 F. 64.0 F.
Sat Jun 20 00:08:05 2020 70.0 F. 64.9 F.
Sat Jun 20 01:08:05 2020 70.0 F. 64.9 F.
Sat Jun 20 02:08:05 2020 68.0 F. 64.9 F.
Sat Jun 20 03:08:05 2020 68.0 F. 64.9 F.
Sat Jun 20 04:08:05 2020 67.0 F. 64.0 F.
Sat Jun 20 05:08:04 2020 67.0 F. 64.0 F.
Sat Jun 20 06:08:04 2020 66.0 F. 64.0 F.
Sat Jun 20 07:08:05 2020 69.0 F. 66.0 F.
Sat Jun 20 08:08:04 2020 77.0 F. 66.0 F.
Sat Jun 20 09:08:05 2020 83.0 F. 64.9 F.
Sat Jun 20 10:08:05 2020 85.0 F. 64.0 F.
Sat Jun 20 11:08:05 2020 88.0 F. 64.9 F.
Sat Jun 20 12:08:05 2020 88.0 F. 64.9 F.
Sat Jun 20 13:08:05 2020 90.0 F. 64.9 F.
Sat Jun 20 14:08:05 2020 91.0 F. 66.9 F.
Sat Jun 20 15:08:05 2020 91.0 F. 66.0 F.
Sat Jun 20 16:08:05 2020 90.0 F. 64.0 F.
Sat Jun 20 17:08:05 2020 90.0 F. 64.0 F.
Sat Jun 20 18:08:04 2020 90.0 F. 66.0 F.
Sat Jun 20 19:08:05 2020 78.0 F. 70.0 F.
Sat Jun 20 20:08:04 2020 78.0 F. 70.0 F.
Sat Jun 20 21:08:06 2020 70.0 F. 68.0 F.
Sat Jun 20 22:08:05 2020 70.0 F. 66.9 F.
Sat Jun 20 23:08:05 2020 71.0 F. 68.0 F.
Sun Jun 21 00:08:05 2020 71.0 F. 68.0 F.
Sun Jun 21 01:08:04 2020 71.0 F. 66.9 F.
Sun Jun 21 02:08:05 2020 71.0 F. 66.9 F.
Sun Jun 21 03:08:05 2020 70.0 F. 66.9 F.
Sun Jun 21 04:08:05 2020 69.0 F. 64.9 F.
Sun Jun 21 05:08:05 2020 68.0 F. 64.9 F.
Sun Jun 21 06:08:05 2020 69.0 F. 66.0 F.
Sun Jun 21 07:08:05 2020 69.0 F. 66.0 F.
Sun Jun 21 08:08:05 2020 70.0 F. 66.0 F.
Sun Jun 21 09:08:05 2020 71.0 F. 66.0 F.
Sun Jun 21 10:08:04 2020 73.0 F. 66.0 F.
Sun Jun 21 11:08:04 2020 75.0 F. 66.0 F.
Sun Jun 21 12:08:05 2020 77.0 F. 66.0 F.
Sun Jun 21 13:08:05 2020 79.0 F. 64.9 F.
Sun Jun 21 14:08:05 2020 83.0 F. 64.0 F.
Sun Jun 21 15:08:05 2020 82.0 F. 64.9 F.
Sun Jun 21 16:08:04 2020 84.0 F. 66.0 F.
Sun Jun 21 17:08:04 2020 85.0 F. 66.9 F.
Sun Jun 21 18:08:04 2020 85.0 F. 66.0 F.
Sun Jun 21 19:08:05 2020 83.0 F. 68.0 F.
Sun Jun 21 20:08:18 2020 81.0 F. 68.0 F.
Sun Jun 21 21:08:05 2020 78.0 F. 69.1 F.
Sun Jun 21 22:08:05 2020 77.0 F. 69.1 F.
Sun Jun 21 23:08:05 2020 75.0 F. 69.1 F.
Mon Jun 22 00:08:05 2020 74.0 F. 69.1 F.
Mon Jun 22 01:08:05 2020 73.0 F. 69.1 F.
Mon Jun 22 02:08:05 2020 73.0 F. 69.1 F.
Mon Jun 22 03:08:05 2020 72.0 F. 68.0 F.
Mon Jun 22 04:08:05 2020 70.0 F. 66.9 F.
Mon Jun 22 05:08:04 2020 71.0 F. 66.9 F.
Mon Jun 22 06:08:05 2020 69.0 F. 66.9 F.
Mon Jun 22 07:08:10 2020 72.0 F. 66.9 F.
Mon Jun 22 08:08:04 2020 75.0 F. 68.0 F.
Mon Jun 22 09:08:05 2020 75.0 F. 69.1 F.
Mon Jun 22 10:08:05 2020 79.0 F. 69.1 F.
Mon Jun 22 11:08:05 2020 80.0 F. 69.1 F.
Mon Jun 22 12:08:05 2020 80.0 F. 69.1 F.
Mon Jun 22 13:08:05 2020 80.0 F. 69.1 F.
Mon Jun 22 14:08:05 2020 85.0 F. 68.0 F.
Mon Jun 22 15:08:05 2020 85.0 F. 68.0 F.
Mon Jun 22 16:08:04 2020 76.0 F. 71.1 F.
Mon Jun 22 17:08:04 2020 76.0 F. 71.1 F.
Mon Jun 22 18:08:05 2020 76.0 F. 70.0 F.
Mon Jun 22 19:08:04 2020 77.0 F. 71.1 F.
Mon Jun 22 20:08:06 2020 76.0 F. 71.1 F.
Mon Jun 22 21:08:05 2020 74.0 F. 70.0 F.
Mon Jun 22 22:08:05 2020 74.0 F. 70.0 F.
Mon Jun 22 23:08:05 2020 70.0 F. 66.0 F.
Tue Jun 23 00:08:05 2020 68.0 F. 66.0 F.
Tue Jun 23 01:08:05 2020 68.0 F. 64.9 F.
Tue Jun 23 02:08:04 2020 68.0 F. 64.9 F.
Tue Jun 23 03:08:05 2020 69.0 F. 66.0 F.
Tue Jun 23 04:08:05 2020 69.0 F. 66.0 F.
Tue Jun 23 05:08:04 2020 69.0 F. 66.0 F.
Tue Jun 23 06:08:05 2020 69.0 F. 66.0 F.
Tue Jun 23 07:08:05 2020 69.0 F. 64.9 F.
Tue Jun 23 08:08:04 2020 69.0 F. 64.9 F.
Tue Jun 23 09:08:05 2020 69.0 F. 64.0 F.
Tue Jun 23 10:08:04 2020 74.0 F. 64.0 F.
Tue Jun 23 11:08:05 2020 74.0 F. 64.0 F.
Tue Jun 23 12:08:04 2020 76.0 F. 57.9 F.
Tue Jun 23 13:08:05 2020 78.0 F. 59.0 F.
Tue Jun 23 14:08:06 2020 79.0 F. 57.9 F.
Tue Jun 23 15:08:04 2020 80.0 F. 57.0 F.
Tue Jun 23 16:08:05 2020 80.0 F. 59.0 F.
Tue Jun 23 17:08:04 2020 82.0 F. 57.9 F.
Tue Jun 23 18:08:05 2020 81.0 F. 57.9 F.
Tue Jun 23 19:08:05 2020 80.0 F. 60.1 F.
Tue Jun 23 20:08:05 2020 76.0 F. 62.1 F.
Tue Jun 23 21:08:05 2020 72.0 F. 64.0 F.
Tue Jun 23 22:08:04 2020 72.0 F. 64.0 F.
Tue Jun 23 23:08:05 2020 69.0 F. 64.0 F.
Wed Jun 24 00:08:05 2020 68.0 F. 64.0 F.
Wed Jun 24 01:08:04 2020 68.0 F. 64.0 F.
Wed Jun 24 02:08:05 2020 67.0 F. 64.0 F.
Wed Jun 24 03:08:04 2020 67.0 F. 63.0 F.
Wed Jun 24 04:08:05 2020 67.0 F. 63.0 F.
Wed Jun 24 05:08:04 2020 65.0 F. 62.1 F.
Wed Jun 24 06:08:05 2020 63.0 F. 60.1 F.
Wed Jun 24 07:08:05 2020 67.0 F. 61.0 F.
Wed Jun 24 08:08:04 2020 67.0 F. 61.0 F.
Wed Jun 24 09:08:05 2020 75.0 F. 60.1 F.
Wed Jun 24 10:08:04 2020 78.0 F. 55.9 F.
Wed Jun 24 11:08:10 2020 78.0 F. 55.9 F.
Wed Jun 24 12:08:21 2020 78.0 F. 55.9 F.
Wed Jun 24 13:08:04 2020 83.0 F. 54.0 F.
Wed Jun 24 14:08:05 2020 81.0 F. 54.0 F.
Wed Jun 24 15:08:05 2020 84.0 F. 55.0 F.
Wed Jun 24 16:08:04 2020 84.0 F. 55.0 F.
Wed Jun 24 17:08:05 2020 81.0 F. 54.0 F.
Wed Jun 24 18:08:05 2020 83.0 F. 54.0 F.
Wed Jun 24 19:08:05 2020 83.0 F. 54.0 F.
Wed Jun 24 20:08:05 2020 83.0 F. 54.0 F.
Wed Jun 24 21:08:05 2020 73.0 F. 60.1 F.
Wed Jun 24 22:08:05 2020 71.0 F. 61.0 F.
Wed Jun 24 23:08:05 2020 71.0 F. 61.0 F.
Thu Jun 25 00:08:04 2020 69.0 F. 62.1 F.
Thu Jun 25 01:08:05 2020 65.0 F. 62.1 F.
Thu Jun 25 02:08:04 2020 65.0 F. 62.1 F.
Thu Jun 25 03:08:04 2020 65.0 F. 62.1 F.
Thu Jun 25 04:08:05 2020 64.0 F. 60.1 F.
Thu Jun 25 05:08:05 2020 63.0 F. 59.0 F.
Thu Jun 25 06:08:05 2020 63.0 F. 59.0 F.
Thu Jun 25 07:08:05 2020 66.0 F. 61.0 F.
Thu Jun 25 08:08:05 2020 72.0 F. 62.1 F.
Thu Jun 25 09:08:05 2020 78.0 F. 61.0 F.
Thu Jun 25 10:08:04 2020 80.0 F. 61.0 F.
Thu Jun 25 11:08:04 2020 83.0 F. 61.0 F.
Thu Jun 25 12:08:05 2020 85.0 F. 60.1 F.
Thu Jun 25 13:08:06 2020 85.0 F. 60.1 F.
Thu Jun 25 14:08:05 2020 88.0 F. 61.0 F.
Thu Jun 25 15:08:05 2020 88.0 F. 61.0 F.
Thu Jun 25 16:08:06 2020 89.0 F. 63.0 F.
Thu Jun 25 17:08:06 2020 89.0 F. 63.0 F.
Thu Jun 25 18:08:05 2020 87.0 F. 63.0 F.
Thu Jun 25 19:08:05 2020 85.0 F. 63.0 F.
Thu Jun 25 20:08:05 2020 85.0 F. 63.0 F.
Thu Jun 25 21:08:05 2020 77.0 F. 64.9 F.
Thu Jun 25 22:08:05 2020 77.0 F. 64.9 F.
Thu Jun 25 23:08:05 2020 74.0 F. 64.9 F.
Fri Jun 26 00:08:05 2020 74.0 F. 64.9 F.
Fri Jun 26 01:08:05 2020 72.0 F. 64.9 F.
Fri Jun 26 02:08:05 2020 71.0 F. 64.9 F.
Fri Jun 26 03:08:22 2020 70.0 F. 64.9 F.
Fri Jun 26 04:08:05 2020 70.0 F. 64.9 F.
Fri Jun 26 05:08:05 2020 68.0 F. 64.0 F.
Fri Jun 26 06:08:04 2020 67.0 F. 64.0 F.
Fri Jun 26 07:08:05 2020 71.0 F. 66.0 F.
Fri Jun 26 08:08:05 2020 71.0 F. 66.0 F.
Fri Jun 26 09:08:05 2020 76.0 F. 68.0 F.
Fri Jun 26 10:08:05 2020 84.0 F. 70.0 F.
Fri Jun 26 11:08:04 2020 87.0 F. 70.0 F.
Fri Jun 26 12:08:05 2020 85.0 F. 71.1 F.
Fri Jun 26 13:08:05 2020 84.0 F. 70.0 F.
Fri Jun 26 14:08:05 2020 87.0 F. 70.0 F.
Fri Jun 26 15:08:04 2020 89.0 F. 70.0 F.
Fri Jun 26 16:08:04 2020 89.0 F. 70.0 F.
Fri Jun 26 17:08:05 2020 89.0 F. 70.0 F.
Fri Jun 26 18:08:05 2020 87.0 F. 70.0 F.
Fri Jun 26 19:08:05 2020 87.0 F. 70.0 F.
Fri Jun 26 20:08:04 2020 83.0 F. 70.0 F.
Fri Jun 26 21:08:05 2020 80.0 F. 71.1 F.
Fri Jun 26 22:08:05 2020 80.0 F. 71.1 F.
Fri Jun 26 23:08:04 2020 79.0 F. 69.1 F.
Sat Jun 27 00:08:05 2020 79.0 F. 69.1 F.
Sat Jun 27 01:08:05 2020 77.0 F. 69.1 F.
Sat Jun 27 02:08:18 2020 77.0 F. 69.1 F.
Sat Jun 27 03:08:04 2020 77.0 F. 69.1 F.
Sat Jun 27 04:08:05 2020 77.0 F. 69.1 F.
Sat Jun 27 05:08:05 2020 76.0 F. 68.0 F.
Sat Jun 27 06:08:05 2020 73.0 F. 68.0 F.
Sat Jun 27 07:08:05 2020 75.0 F. 66.9 F.
Sat Jun 27 08:08:04 2020 77.0 F. 68.0 F.
Sat Jun 27 09:08:05 2020 78.0 F. 66.9 F.
Sat Jun 27 10:08:06 2020 79.0 F. 68.0 F.
Sat Jun 27 11:08:05 2020 80.0 F. 71.1 F.
Sat Jun 27 12:08:05 2020 83.0 F. 70.0 F.
Sat Jun 27 13:08:05 2020 84.0 F. 70.0 F.
Sat Jun 27 14:08:06 2020 88.0 F. 71.1 F.
Sat Jun 27 15:08:05 2020 89.0 F. 71.1 F.
Sat Jun 27 16:08:04 2020 89.0 F. 71.1 F.
Sat Jun 27 17:08:05 2020 86.0 F. 72.0 F.
Sat Jun 27 18:08:05 2020 86.0 F. 72.0 F.
Sat Jun 27 19:08:05 2020 84.0 F. 72.0 F.
Sat Jun 27 20:08:05 2020 81.0 F. 72.0 F.
Sat Jun 27 21:08:05 2020 81.0 F. 72.0 F.
Sat Jun 27 22:08:05 2020 79.0 F. 73.0 F.
Sat Jun 27 23:08:05 2020 79.0 F. 72.0 F.
Sun Jun 28 00:08:04 2020 79.0 F. 72.0 F.
Sun Jun 28 01:08:05 2020 72.0 F. 69.1 F.
Sun Jun 28 02:08:04 2020 73.0 F. 70.0 F.
Sun Jun 28 03:08:05 2020 73.0 F. 70.0 F.
Sun Jun 28 04:08:05 2020 73.0 F. 70.0 F.
Sun Jun 28 05:08:05 2020 76.0 F. 72.0 F.
Sun Jun 28 06:08:04 2020 76.0 F. 72.0 F.
Sun Jun 28 07:08:05 2020 77.0 F. 72.0 F.
Sun Jun 28 08:08:05 2020 77.0 F. 72.0 F.
Sun Jun 28 09:08:04 2020 81.0 F. 73.0 F.
Sun Jun 28 10:08:05 2020 82.0 F. 73.0 F.
Sun Jun 28 11:08:04 2020 85.0 F. 73.0 F.
Sun Jun 28 12:08:05 2020 84.0 F. 73.0 F.
Sun Jun 28 13:08:05 2020 84.0 F. 73.0 F.
Sun Jun 28 14:08:04 2020 88.0 F. 75.0 F.
Sun Jun 28 15:08:05 2020 89.0 F. 73.0 F.
Sun Jun 28 16:08:04 2020 89.0 F. 73.0 F.
Sun Jun 28 17:08:05 2020 90.0 F. 73.9 F.
Sun Jun 28 18:08:05 2020 90.0 F. 73.9 F.
Sun Jun 28 19:08:04 2020 90.0 F. 73.9 F.
Sun Jun 28 20:08:05 2020 85.0 F. 75.0 F.
Sun Jun 28 21:08:05 2020 85.0 F. 75.0 F.
Sun Jun 28 22:08:18 2020 79.0 F. 73.0 F.
Sun Jun 28 23:08:05 2020 79.0 F. 73.0 F.
Mon Jun 29 00:08:04 2020 80.0 F. 72.0 F.
Mon Jun 29 01:08:04 2020 77.0 F. 71.1 F.
Mon Jun 29 02:08:05 2020 77.0 F. 71.1 F.
Mon Jun 29 03:08:06 2020 78.0 F. 72.0 F.
Mon Jun 29 04:08:05 2020 78.0 F. 72.0 F.
Mon Jun 29 05:08:04 2020 76.0 F. 71.1 F.
Mon Jun 29 06:08:04 2020 77.0 F. 71.1 F.
Mon Jun 29 07:08:05 2020 78.0 F. 71.1 F.
Mon Jun 29 08:08:05 2020 78.0 F. 71.1 F.
Mon Jun 29 09:08:05 2020 81.0 F. 70.0 F.
Mon Jun 29 10:08:05 2020 81.0 F. 70.0 F.
Mon Jun 29 11:08:05 2020 82.0 F. 71.1 F.
Mon Jun 29 12:08:05 2020 83.0 F. 71.1 F.
Mon Jun 29 13:08:05 2020 83.0 F. 73.0 F.
Mon Jun 29 14:08:04 2020 85.0 F. 73.0 F.
Mon Jun 29 15:08:05 2020 87.0 F. 72.0 F.
Mon Jun 29 16:08:04 2020 88.0 F. 72.0 F.
Mon Jun 29 17:08:06 2020 89.0 F. 73.0 F.
Mon Jun 29 18:08:04 2020 89.0 F. 73.0 F.
Mon Jun 29 19:08:05 2020 88.0 F. 71.1 F.
Mon Jun 29 20:08:04 2020 83.0 F. 72.0 F.
Mon Jun 29 21:08:07 2020 83.0 F. 72.0 F.
Mon Jun 29 22:08:05 2020 81.0 F. 71.1 F.
Mon Jun 29 23:08:05 2020 81.0 F. 71.1 F.
Tue Jun 30 00:08:05 2020 79.0 F. 72.0 F.
Tue Jun 30 01:08:04 2020 77.0 F. 70.0 F.
Tue Jun 30 02:08:05 2020 74.0 F. 71.1 F.
Tue Jun 30 03:08:05 2020 74.0 F. 71.1 F.
Tue Jun 30 04:08:05 2020 75.0 F. 72.0 F.
Tue Jun 30 05:08:04 2020 74.0 F. 72.0 F.
Tue Jun 30 06:08:05 2020 74.0 F. 71.1 F.
Tue Jun 30 07:08:05 2020 69.0 F. 66.9 F.
Tue Jun 30 08:08:04 2020 69.0 F. 66.9 F.
Tue Jun 30 09:08:04 2020 71.0 F. 68.0 F.
Tue Jun 30 10:08:04 2020 75.0 F. 70.0 F.
Tue Jun 30 11:08:05 2020 75.0 F. 70.0 F.
Tue Jun 30 12:08:04 2020 80.0 F. 73.9 F.
Tue Jun 30 13:08:05 2020 82.0 F. 75.0 F.
Tue Jun 30 14:08:05 2020 83.0 F. 75.0 F.
Tue Jun 30 15:08:05 2020 78.0 F. 73.0 F.
Tue Jun 30 16:08:05 2020 78.0 F. 73.0 F.
Tue Jun 30 17:08:05 2020 77.0 F. 72.0 F.
Tue Jun 30 18:08:04 2020 71.0 F. 66.9 F.
Tue Jun 30 19:08:05 2020 71.0 F. 68.0 F.
Tue Jun 30 20:08:05 2020 71.0 F. 66.9 F.
Tue Jun 30 21:08:05 2020 71.0 F. 66.9 F.
Tue Jun 30 22:08:05 2020 70.0 F. 66.9 F.
Tue Jun 30 23:08:05 2020 70.0 F. 66.9 F.
Wed Jul 1 00:08:06 2020 70.0 F. 66.9 F.
Wed Jul 1 01:08:04 2020 70.0 F. 66.9 F.
Wed Jul 1 02:08:05 2020 70.0 F. 66.9 F.
Wed Jul 1 03:08:04 2020 71.0 F. 66.9 F.
Wed Jul 1 04:08:05 2020 70.0 F. 68.0 F.
Wed Jul 1 05:08:05 2020 70.0 F. 68.0 F.
Wed Jul 1 06:08:05 2020 70.0 F. 68.0 F.
Wed Jul 1 07:08:05 2020 70.0 F. 68.0 F.
Wed Jul 1 08:08:05 2020 72.0 F. 69.1 F.
Wed Jul 1 09:08:07 2020 74.0 F. 69.1 F.
Wed Jul 1 10:08:04 2020 74.0 F. 69.1 F.
Wed Jul 1 11:08:04 2020 78.0 F. 72.0 F.
Wed Jul 1 12:08:04 2020 78.0 F. 72.0 F.
Wed Jul 1 13:08:04 2020 82.0 F. 73.9 F.
Wed Jul 1 14:08:05 2020 71.0 F. 68.0 F.
Wed Jul 1 15:08:05 2020 71.0 F. 68.0 F.
Wed Jul 1 16:08:05 2020 71.0 F. 68.0 F.
Wed Jul 1 17:08:05 2020 72.0 F. 69.1 F.
Wed Jul 1 18:08:05 2020 72.0 F. 69.1 F.
Wed Jul 1 19:08:05 2020 72.0 F. 68.0 F.
Wed Jul 1 20:08:05 2020 73.0 F. 69.1 F.
Wed Jul 1 21:08:05 2020 73.0 F. 69.1 F.
Wed Jul 1 22:08:05 2020 70.0 F. 68.0 F.
Wed Jul 1 23:08:05 2020 69.0 F. 66.9 F.
Thu Jul 2 00:08:04 2020 69.0 F. 66.9 F.
Thu Jul 2 01:08:05 2020 69.0 F. 66.9 F.
Thu Jul 2 02:08:05 2020 68.0 F. 66.9 F.
Thu Jul 2 03:08:04 2020 68.0 F. 66.0 F.
Thu Jul 2 04:08:05 2020 68.0 F. 66.0 F.
Thu Jul 2 05:08:06 2020 68.0 F. 66.0 F.
Thu Jul 2 06:08:04 2020 68.0 F. 66.0 F.
Thu Jul 2 07:08:05 2020 68.0 F. 66.0 F.
Thu Jul 2 08:08:04 2020 70.0 F. 68.0 F.
Thu Jul 2 09:08:04 2020 72.0 F. 70.0 F.
Thu Jul 2 10:08:05 2020 77.0 F. 71.1 F.
Thu Jul 2 11:08:05 2020 80.0 F. 72.0 F.
Thu Jul 2 12:08:05 2020 81.0 F. 72.0 F.
Thu Jul 2 13:08:04 2020 84.0 F. 73.0 F.
Thu Jul 2 14:08:04 2020 84.0 F. 73.0 F.
Thu Jul 2 15:08:06 2020 84.0 F. 73.0 F.
Thu Jul 2 16:08:05 2020 87.0 F. 73.0 F.
Thu Jul 2 17:08:05 2020 88.0 F. 72.0 F.
Thu Jul 2 18:08:05 2020 88.0 F. 72.0 F.
Thu Jul 2 19:08:05 2020 88.0 F. 71.1 F.
Thu Jul 2 20:08:05 2020 85.0 F. 75.9 F.
Thu Jul 2 21:08:05 2020 81.0 F. 75.9 F.
Thu Jul 2 22:08:04 2020 81.0 F. 75.9 F.
Thu Jul 2 23:08:04 2020 77.0 F. 73.9 F.
Fri Jul 3 00:08:05 2020 77.0 F. 73.9 F.
Fri Jul 3 01:08:04 2020 76.0 F. 73.0 F.
Fri Jul 3 02:08:05 2020 76.0 F. 73.0 F.
Fri Jul 3 03:08:05 2020 75.0 F. 73.0 F.
Fri Jul 3 04:08:05 2020 74.0 F. 72.0 F.
Fri Jul 3 05:08:05 2020 74.0 F. 72.0 F.
Fri Jul 3 06:08:05 2020 73.0 F. 71.1 F.
Fri Jul 3 07:08:05 2020 76.0 F. 73.0 F.
Fri Jul 3 08:08:05 2020 78.0 F. 73.0 F.
Fri Jul 3 09:08:05 2020 78.0 F. 73.0 F.
Fri Jul 3 10:08:05 2020 85.0 F. 72.0 F.
Fri Jul 3 11:08:05 2020 87.0 F. 73.0 F.
Fri Jul 3 12:08:04 2020 87.0 F. 72.0 F.
Fri Jul 3 13:08:05 2020 88.0 F. 70.0 F.
Fri Jul 3 14:08:05 2020 90.0 F. 70.0 F.
Fri Jul 3 15:08:05 2020 89.0 F. 71.1 F.
Fri Jul 3 16:08:05 2020 90.0 F. 69.1 F.
Fri Jul 3 17:08:05 2020 90.0 F. 69.1 F.
Fri Jul 3 18:08:05 2020 89.0 F. 69.1 F.
Fri Jul 3 19:08:05 2020 89.0 F. 69.1 F.
Fri Jul 3 20:08:04 2020 89.0 F. 69.1 F.
Fri Jul 3 21:08:05 2020 89.0 F. 69.1 F.
Fri Jul 3 22:08:05 2020 89.0 F. 69.1 F.
Fri Jul 3 23:08:04 2020 89.0 F. 69.1 F.
Sat Jul 4 00:08:05 2020 75.0 F. 72.0 F.
Sat Jul 4 01:08:05 2020 74.0 F. 72.0 F.
Sat Jul 4 02:08:05 2020 73.0 F. 71.1 F.
Sat Jul 4 03:08:10 2020 73.0 F. 71.1 F.
Sat Jul 4 04:08:04 2020 71.0 F. 69.1 F.
Sat Jul 4 05:08:04 2020 71.0 F. 69.1 F.
Sat Jul 4 06:08:05 2020 70.0 F. 68.0 F.
Sat Jul 4 07:08:05 2020 70.0 F. 68.0 F.
Sat Jul 4 08:08:05 2020 77.0 F. 70.0 F.
Sat Jul 4 09:08:05 2020 80.0 F. 70.0 F.
Sat Jul 4 10:08:05 2020 84.0 F. 71.1 F.
Sat Jul 4 11:08:04 2020 84.0 F. 71.1 F.
Sat Jul 4 12:08:05 2020 88.0 F. 70.0 F.
Sat Jul 4 13:08:05 2020 88.0 F. 68.0 F.
Sat Jul 4 14:08:05 2020 91.0 F. 68.0 F.
Sat Jul 4 15:08:04 2020 91.0 F. 64.9 F.
Sat Jul 4 16:08:05 2020 91.0 F. 64.9 F.
Sat Jul 4 17:08:04 2020 91.0 F. 69.1 F.
Sat Jul 4 18:08:29 2020 91.0 F. 69.1 F.
Sat Jul 4 19:08:05 2020 89.0 F. 70.0 F.
Sat Jul 4 20:08:04 2020 86.0 F. 75.0 F.
Sat Jul 4 21:08:05 2020 80.0 F. 75.0 F.
Sat Jul 4 22:08:05 2020 78.0 F. 73.9 F.
Sat Jul 4 23:08:05 2020 78.0 F. 73.9 F.
Sun Jul 5 00:08:05 2020 75.0 F. 73.0 F.
Sun Jul 5 01:08:05 2020 75.0 F. 72.0 F.
Sun Jul 5 02:08:05 2020 73.0 F. 71.1 F.
Sun Jul 5 03:08:04 2020 73.0 F. 71.1 F.
Sun Jul 5 04:08:05 2020 73.0 F. 70.0 F.
Sun Jul 5 05:08:05 2020 72.0 F. 70.0 F.
Sun Jul 5 06:08:05 2020 72.0 F. 70.0 F.
Sun Jul 5 07:08:04 2020 74.0 F. 71.1 F.
Sun Jul 5 08:08:05 2020 78.0 F. 72.0 F.
Sun Jul 5 09:08:05 2020 81.0 F. 73.0 F.
Sun Jul 5 10:08:05 2020 86.0 F. 73.0 F.
Sun Jul 5 11:08:19 2020 90.0 F. 70.0 F.
Sun Jul 5 12:08:05 2020 91.0 F. 69.1 F.
Sun Jul 5 13:08:04 2020 91.0 F. 69.1 F.
Sun Jul 5 14:08:05 2020 92.0 F. 66.0 F.
Sun Jul 5 15:08:05 2020 93.0 F. 66.9 F.
Sun Jul 5 16:08:04 2020 92.0 F. 64.9 F.
Sun Jul 5 17:08:05 2020 93.0 F. 63.0 F.
Sun Jul 5 18:08:05 2020 92.0 F. 70.0 F.
Sun Jul 5 19:08:05 2020 90.0 F. 71.1 F.
Sun Jul 5 20:08:05 2020 86.0 F. 75.0 F.
Sun Jul 5 21:08:05 2020 81.0 F. 73.9 F.
Sun Jul 5 22:08:05 2020 81.0 F. 73.9 F.
Sun Jul 5 23:08:04 2020 79.0 F. 72.0 F.
Mon Jul 6 00:08:05 2020 79.0 F. 72.0 F.
Mon Jul 6 01:08:05 2020 76.0 F. 71.1 F.
Mon Jul 6 02:08:04 2020 74.0 F. 71.1 F.
Mon Jul 6 03:08:05 2020 74.0 F. 71.1 F.
Mon Jul 6 04:08:04 2020 74.0 F. 71.1 F.
Mon Jul 6 05:08:05 2020 73.0 F. 70.0 F.
Mon Jul 6 06:08:06 2020 73.0 F. 70.0 F.
Mon Jul 6 07:08:05 2020 74.0 F. 71.1 F.
Mon Jul 6 08:08:05 2020 77.0 F. 71.1 F.
Mon Jul 6 09:08:05 2020 80.0 F. 72.0 F.
Mon Jul 6 10:09:03 2020
Mon Jul 6 11:09:08 2020
Mon Jul 6 12:08:09 2020 88.0 F. 73.9 F.
Mon Jul 6 13:08:05 2020 89.0 F. 73.9 F.
Mon Jul 6 14:08:05 2020 84.0 F. 71.1 F.
Mon Jul 6 15:08:05 2020 83.0 F. 70.0 F.
Mon Jul 6 16:08:10 2020 83.0 F. 70.0 F.
Mon Jul 6 17:08:04 2020 90.0 F. 73.0 F.
Mon Jul 6 18:08:05 2020 91.0 F. 70.0 F.
Mon Jul 6 19:08:05 2020 89.0 F. 73.0 F.
Mon Jul 6 20:08:04 2020 86.0 F. 73.9 F.
Mon Jul 6 21:08:05 2020 82.0 F. 73.9 F.
Mon Jul 6 22:08:05 2020 80.0 F. 75.0 F.
Mon Jul 6 23:08:05 2020 80.0 F. 75.0 F.
Tue Jul 7 00:08:05 2020 78.0 F. 73.9 F.
Tue Jul 7 01:08:05 2020 76.0 F. 73.9 F.
Tue Jul 7 02:08:05 2020 76.0 F. 73.9 F.